CW9769 Weather Reports


Display with metric or nautical units.
time (UTC)temp
F
wind
direction
speed
MPH
gust
MPH
rain 1hr
in
rain 24hr
in
rain mn
in
humidity
%
barometer
mb
20260831053918 71 246 2.0 5.0 0.00 0.02 0.00 85 1018.5
20260831052918 71 231 2.0 7.0 0.00 0.02 0.00 85 1018.5
20260831051917 71 229 4.0 9.0 0.00 0.02 0.00 85 1018.5
20260831050917 70 216 4.0 9.0 0.00 0.02 0.00 86 1018.5
20260831045916 70 209 4.0 7.0 0.00 0.02 0.00 87 1018.2
20260831044915 70 209 3.0 6.0 0.00 0.02 0.00 88 1018.2
20260831043913 70 206 2.0 6.0 0.00 0.02 0.00 88 1018.2
20260831042912 70 197 2.0 6.0 0.00 0.02 0.00 88 1018.5
20260831041911 70 205 3.0 6.0 0.00 0.02 0.00 88 1018.5
20260831040911 70 210 2.0 4.0 0.00 0.02 0.00 88 1018.5
20260831035839 70 205 2.0 5.0 0.00 0.02 0.02 88 1018.5
20260831034838 70 207 2.0 5.0 0.00 0.02 0.02 88 1018.5
20260831033837 70 203 2.0 6.0 0.00 0.02 0.02 89 1018.5
20260831032837 70 202 2.0 7.0 0.00 0.02 0.02 88 1018.4
20260831031834 70 199 3.0 8.0 0.00 0.02 0.02 89 1018.8
20260831030833 70 209 3.0 8.0 0.00 0.02 0.02 90 1018.7
20260831025833 69 210 4.0 7.0 0.00 0.02 0.02 92 1018.7
20260831024832 69 190 1.0 3.0 0.00 0.02 0.02 93 1019.0
20260831023831 68 190 1.0 3.0 0.00 0.02 0.02 93 1019.0
20260831022830 68 179 1.0 2.0 0.00 0.02 0.02 93 1019.0
20260831021829 69 182 1.0 2.0 0.00 0.02 0.02 93 1019.1
20260831020828 69 186 0.0 2.0 0.00 0.02 0.02 93 1019.1
20260831015827 69 186 1.0 2.0 0.00 0.02 0.02 93 1019.4
20260831014827 69 176 1.0 2.0 0.00 0.02 0.02 92 1019.4
20260831013723 70 175 1.0 2.0 0.00 0.02 0.02 91 1019.4
20260831012723 70 65 1.0 2.0 0.00 0.02 0.02 91 1019.8
20260831011722 70 15 0.0 1.0 0.00 0.02 0.02 92 1019.7
20260831010721 70 15 1.0 2.0 0.00 0.02 0.02 92 1020.1
20260831005720 70 15 1.0 2.0 0.00 0.02 0.02 91 1019.7
20260831004719 71 15 1.0 2.0 0.00 0.02 0.02 91 1019.7
20260831003718 71 119 0.0 0.0 0.00 0.02 0.02 90 1019.1
20260831002716 71 119 0.0 0.0 0.00 0.02 0.02 90 1019.0
20260831001715 71 119 0.0 0.0 0.00 0.02 0.02 90 1019.0
20260831000714 71 119 0.0 0.0 0.00 0.02 0.02 88 1019.0
20260830235713 72 119 0.0 0.0 0.00 0.02 0.02 88 1019.0
20260830234713 72 119 0.0 1.0 0.00 0.02 0.02 88 1019.0
20260830233710 72 119 0.0 2.0 0.00 0.02 0.02 87 1019.0
20260830232710 73 119 1.0 2.0 0.00 0.02 0.02 85 1019.0
20260830231709 73 119 0.0 2.0 0.00 0.02 0.02 85 1018.7
20260830230708 74 126 1.0 2.0 0.00 0.02 0.02 84 1018.4
20260830225605 74 206 1.0 2.0 0.00 0.02 0.02 81 1018.4
20260830224602 74 219 1.0 2.0 0.00 0.02 0.02 81 1018.1
20260830223602 74 206 0.0 3.0 0.00 0.02 0.02 80 1018.1
20260830222527 75 208 1.0 6.0 0.00 0.02 0.02 79 1017.8
20260830221455 75 238 1.0 6.0 0.00 0.02 0.02 79 1017.8
20260830220454 75 216 4.0 6.0 0.00 0.02 0.02 77 1017.4
20260830215454 76 209 3.0 8.0 0.00 0.02 0.02 77 1017.5
20260830214451 76 219 2.0 8.0 0.00 0.02 0.02 78 1017.8
20260830213347 76 222 2.0 7.0 0.00 0.02 0.02 79 1017.8
20260830212315 76 201 2.0 5.0 0.00 0.02 0.02 80 1017.5
20260830211314 75 212 2.0 6.0 0.00 0.02 0.02 82 1017.4
20260830210313 74 211 2.0 6.0 0.00 0.02 0.02 83 1017.7
20260830205312 74 199 3.0 7.0 0.00 0.02 0.02 84 1017.7
20260830204311 74 211 1.0 7.0 0.00 0.02 0.02 83 1018.1
20260830203239 74 220 3.0 4.0 0.01 0.02 0.02 85 1018.1
20260830202238 74 225 2.0 4.0 0.01 0.02 0.02 86 1018.1
20260830201237 74 202 1.0 3.0 0.01 0.02 0.02 86 1018.0
20260830200237 73 188 1.0 4.0 0.01 0.02 0.02 87 1018.4
20260830195236 73 201 2.0 5.0 0.01 0.02 0.02 85 1018.4
20260830194133 73 219 1.0 6.0 0.01 0.02 0.02 85 1018.4
20260830193132 73 223 2.0 6.0 0.00 0.01 0.01 84 1018.7
20260830192131 73 221 3.0 7.0 0.01 0.01 0.01 84 1018.7
20260830191130 74 233 4.0 7.0 0.01 0.01 0.01 83 1018.7
20260830190129 74 218 4.0 6.0 0.01 0.01 0.01 85 1019.0
20260830185057 74 221 3.0 5.0 0.01 0.01 0.01 84 1019.4
20260830184025 74 216 2.0 4.0 0.01 0.01 0.01 82 1019.7
20260830183025 75 227 2.0 4.0 0.01 0.01 0.01 80 1020.1
20260830182024 76 264 1.0 3.0 0.00 0.00 0.00 77 1020.4
20260830180952 76 337 0.0 2.0 0.00 0.00 0.00 75 1020.4
20260830175951 76 337 1.0 2.0 0.00 0.00 0.00 74 1020.7
20260830174950 76 346 1.0 3.0 0.00 0.00 0.00 73 1020.8
20260830173950 76 347 1.0 3.0 0.00 0.00 0.00 72 1020.8
20260830172949 76 354 2.0 4.0 0.00 0.00 0.00 72 1020.8
20260830171948 76 353 3.0 4.0 0.00 0.00 0.00 69 1020.8
20260830170845 76 0 3.0 6.0 0.00 0.00 0.00 70 1020.8
20260830165844 76 22 4.0 6.0 0.00 0.00 0.00 71 1020.8
20260830164843 76 4 3.0 4.0 0.00 0.00 0.00 73 1020.8
20260830163842 76 354 3.0 5.0 0.00 0.00 0.00 73 1021.1
20260830162840 75 357 2.0 5.0 0.00 0.00 0.00 74 1021.1
20260830161840 75 355 2.0 7.0 0.00 0.00 0.00 76 1021.1
20260830160839 75 13 2.0 7.0 0.00 0.00 0.00 77 1021.1
20260830155838 75 9 2.0 8.0 0.00 0.00 0.00 79 1021.1
20260830154837 74 357 3.0 8.0 0.00 0.00 0.00 79 1021.4
20260830153805 73 329 2.0 4.0 0.00 0.00 0.00 84 1021.4
20260830152702 73 307 2.0 3.0 0.00 0.00 0.00 84 1021.0
20260830151701 72 308 2.0 4.0 0.00 0.00 0.00 85 1021.0
20260830150700 72 292 2.0 4.0 0.00 0.00 0.00 87 1020.7
20260830145627 72 265 1.0 3.0 0.00 0.00 0.00 85 1020.7
20260830144626 72 306 1.0 2.0 0.00 0.00 0.00 82 1020.4
20260830143554 73 321 1.0 2.0 0.00 0.00 0.00 81 1020.4
20260830142553 73 357 1.0 3.0 0.00 0.00 0.00 80 1020.4
20260830141553 72 357 1.0 3.0 0.00 0.00 0.00 79 1020.4
20260830140552 73 342 2.0 3.0 0.00 0.00 0.00 78 1020.3
20260830135520 73 313 2.0 3.0 0.00 0.00 0.00 78 1020.0
20260830134448 73 299 1.0 4.0 0.00 0.00 0.00 78 1019.7
20260830133447 72 280 2.0 4.0 0.00 0.00 0.00 79 1019.3
20260830132447 72 273 1.0 4.0 0.00 0.00 0.00 78 1019.3
20260830131446 71 259 2.0 3.0 0.00 0.00 0.00 79 1019.3
20260830130445 71 261 1.0 3.0 0.00 0.00 0.00 79 1019.3
20260830125444 71 252 2.0 4.0 0.00 0.00 0.00 79 1019.4
20260830124443 70 250 2.0 6.0 0.00 0.00 0.00 80 1019.3
20260830123443 70 237 2.0 6.0 0.00 0.00 0.00 80 1019.3
20260830122442 69 231 3.0 6.0 0.00 0.00 0.00 80 1019.3
20260830121410 69 234 2.0 8.0 0.00 0.00 0.00 80 1019.4
20260830120408 68 247 2.0 8.0 0.00 0.00 0.00 81 1019.4
20260830115306 68 230 2.0 6.0 0.00 0.00 0.00 81 1019.4
20260830114233 68 241 2.0 5.0 0.00 0.00 0.00 81 1019.4
20260830113231 68 240 2.0 5.0 0.00 0.00 0.00 81 1019.8
20260830112230 68 242 2.0 4.0 0.00 0.00 0.00 81 1019.5
20260830111229 68 253 1.0 3.0 0.00 0.00 0.00 80 1019.5
20260830110229 68 243 1.0 4.0 0.00 0.00 0.00 80 1019.5
20260830105228 68 233 1.0 4.0 0.00 0.00 0.00 80 1019.6
20260830104227 68 246 1.0 3.0 0.00 0.00 0.00 80 1019.6
20260830103226 68 229 1.0 3.0 0.00 0.00 0.00 80 1019.6
20260830102225 68 209 1.0 4.0 0.00 0.00 0.00 80 1019.9
20260830101225 68 228 1.0 4.0 0.00 0.00 0.00 80 1019.9
20260830100224 68 236 1.0 3.0 0.00 0.00 0.00 80 1019.9
20260830095223 68 227 1.0 6.0 0.00 0.00 0.00 80 1019.9
20260830094222 68 227 2.0 7.0 0.00 0.00 0.00 79 1019.5
20260830093221 67 208 2.0 5.0 0.00 0.00 0.00 81 1019.5
20260830092220 67 242 1.0 2.0 0.00 0.00 0.00 82 1019.9
20260830091219 67 249 1.0 3.0 0.00 0.00 0.00 81 1019.8
20260830090219 67 227 1.0 4.0 0.00 0.00 0.00 81 1019.9
20260830085217 67 243 2.0 5.0 0.00 0.00 0.00 81 1019.9
20260830084216 67 226 2.0 5.0 0.00 0.00 0.00 81 1019.9
20260830083215 67 237 1.0 5.0 0.00 0.00 0.00 81 1019.9
20260830082041 67 241 1.0 3.0 0.00 0.00 0.00 81 1019.9
20260830081040 67 231 1.0 4.0 0.00 0.00 0.00 82 1019.9
20260830080039 67 188 1.0 3.0 0.00 0.00 0.00 82 1019.9
20260830075038 66 186 2.0 4.0 0.00 0.00 0.00 82 1019.9
20260830074037 66 209 1.0 4.0 0.00 0.00 0.00 82 1019.9
20260830073037 66 206 1.0 2.0 0.00 0.00 0.00 84 1019.9
20260830071902 66 209 1.0 2.0 0.00 0.00 0.00 83 1019.9
20260830070901 66 214 1.0 2.0 0.00 0.00 0.00 83 1020.3
20260830065830 66 207 1.0 2.0 0.00 0.00 0.00 83 1020.2
20260830064726 66 202 1.0 2.0 0.00 0.00 0.00 83 1020.2
20260830063725 66 194 1.0 2.0 0.00 0.00 0.00 82 1020.2
20260830062724 66 202 1.0 3.0 0.00 0.00 0.00 81 1020.2
20260830061652 66 191 1.0 3.0 0.00 0.00 0.00 82 1020.2
20260830060651 65 194 2.0 3.0 0.00 0.00 0.00 82 1020.2
20260830055650 65 189 1.0 3.0 0.00 0.00 0.00 83 1020.5
20260830054649 66 205 1.0 3.0 0.00 0.00 0.00 82 1020.5